Location: Ford County Road and Bridge Department
(37.7686°N, 99.9762°W)
Time: 18:43:00
(UTC+00:00)

Meteor 1-21 Rocket - Pass Details

Date: 18 January 2020
Orbit: 834 x 906 km, 81.2° (Epoch: 26 February)

Event Time Altitude Azimuth Distance (km) Brightness Sun altitude
Rises 01:13:18 0° 181° (S) 3,368 7.5 -16.9°
Reaches altitude 10° 01:15:42 10° 180° (S) 2,442 6.8 -17.4°
Maximum altitude 01:21:12 73° 96° (E) 886 4.1 -18.5°
Drops below altitude 10° 01:26:49 10° 13° (NNE) 2,492 6.4 -19.5°
Enters shadow 01:28:55 - 12° (NNE) 3,303 7.1 -19.9°
